Weather Roundup
Issued by NWS

Home | Current Version | Previous Version | Text Only | Print | Product List | Glossary On
Versions: 1 2 3 4 5 6 7 8 9 10 11 12 13 14 15 16 17 18 19 20 21 22 23 24 25 26 27 28 29 30 31 32 33 34 35 36 37 38 39 40 41 42 43 44 45 46 47 48 49 50
000
NZUS99 KDVN 212210
HRRCWA
HOURLY WEATHER ROUNDUP
NATIONAL WEATHER SERVICE QUAD CITIES IA IL
500 PM CDT THU MAR 21 2019

Note: "Fair" indicates few or no clouds below 12,000 feet with
no significant weather and/or obstructions to visibility.

* - These stations are not NWS stations and are not subject to NWS
quality control.  Some stations do not report weather such as fog
and some only report TMP and DP in whole degrees Celsius, which are
then converted to Fahrenheit.

...NORTHEAST IOWA..................................................

CITY           SKY/WX    TMP DP  RH WIND       PRES   REMARKS
DECORAH *      FAIR      48  37  66 W13G21    30.00F WCI  43
DUBUQUE        FAIR      49  35  58 W18       30.01F WCI  42
INDEPENDENCE * FAIR      51  39  62 NW18      30.05F
OELWEIN *      FAIR      48  39  71 W16G23    30.04F WCI  42
WATERLOO       FAIR      51  37  58 W16G24    30.05F

...SOUTHWEST AND SOUTH CENTRAL WISCONSIN...........................

CITY           SKY/WX    TMP DP  RH WIND       PRES   REMARKS
BOSCOBEL       FAIR      52  31  44 W12G22    29.98F
JANESVILLE *   SUNNY     52  30  43 W13G18    29.95F
LONE ROCK      NOT AVBL
MINERAL POINT* NOT AVBL
MONROE *       FAIR      49  31  48 MISG      29.95F
PRAIRIE DU CHI FAIR      50  32  50 W13G21    30.00F WCI  45

...EAST CENTRAL IOWA...............................................

CITY           SKY/WX    TMP DP  RH WIND       PRES   REMARKS
CEDAR RAPIDS   FAIR      50  36  58 NW21G26   30.05F WCI  43
CLINTON *      FAIR      50  36  58 NW23      30.03F WCI  43
DAVENPORT      FAIR      51  35  54 NW17G28   30.06S
IOWA CITY      FAIR      53  33  46 NW12G23   30.08F
MARSHALLTOWN   SUNNY     51  37  58 W16       30.07F
MONTICELLO *   NOT AVBL
MUSCATINE *    FAIR      52  34  50 NW17G24   30.07F
NEWTON *       SUNNY     52  36  54 NW15      30.10F
VINTON *       FAIR      51  37  57 W17G23    30.06F

...NORTHWEST ILLINOIS..............................................

CITY           SKY/WX    TMP DP  RH WIND       PRES   REMARKS
FREEPORT *     NOT AVBL
MOLINE         FAIR      53  34  48 NW21      30.03F
PERU *         NOT AVBL
ROCHELLE *     NOT AVBL
ROCKFORD       FAIR      50  32  50 W16G24    29.99F WCI  44
SAVANNA *      NOT AVBL
STERLING/R.F.* FAIR      51  34  52 NW17G23   30.01F

...SOUTHEAST IOWA AND NORTHEAST MISSOURI...........................

CITY           SKY/WX    TMP DP  RH WIND       PRES   REMARKS
BURLINGTON     SUNNY     53  33  46 NW12G20   30.07F
FAIRFIELD *    SUNNY     52  34  50 W12G17    30.08F
FORT MADISON * SUNNY     54  36  50 W14G21    30.09F
KEOKUK *       SUNNY     54  34  47 NW16      30.08F
KIRKSVILLE     SUNNY     55  32  41 NW13      30.12S
KNOXVILLE *    SUNNY     54  32  43 NW13      30.10F
MT PLEASANT *  SUNNY     54  36  50 NW13G18   30.08F
OTTUMWA        SUNNY     53  31  42 W12       30.09F
WASHINGTON *   SUNNY     52  36  54 NW14G22   30.09S

...WESTERN ILLINOIS................................................

CITY           SKY/WX    TMP DP  RH WIND       PRES   REMARKS
GALESBURG *    NOT AVBL
MACOMB *       NOT AVBL
PEORIA         FAIR      50  33  52 W12G20    30.05F WCI  46
QUINCY         SUNNY     54  33  45 W16       30.08F

END...




USA.gov is the U.S. government's official web portal to all federal, state and local government web resources and services.